This is the latest recevied weather packets stored in our database for station/object N9OJR. If no packets are shown the sender has not sent any weather packets the latest 10 day(s).
| Time | Temp. | Humidity | Pressure | Rain* | Wind** | Luminosity | Snow |
|---|---|---|---|---|---|---|---|
| 1777301150 | 15° C | 72% | 1016.2 hPa | 0 mm | - | 649 W/m² | - |
| 1777300847 | 15° C | 72% | 1016.5 hPa | 0 mm | - | 659 W/m² | - |
| 1777300545 | 14.44° C | 75% | 1016.3 hPa | 0 mm | - | 650 W/m² | - |
| 1777300242 | 15° C | 75% | 1016.6 hPa | 0 mm | - | 655 W/m² | - |
| 1777299938 | 13.89° C | 76% | 1016.8 hPa | 0 mm | - | 690 W/m² | - |
| 1777299635 | 13.89° C | 77% | 1016.5 hPa | 0 mm | - | 652 W/m² | - |
| 1777299334 | 13.33° C | 78% | 1016.9 hPa | 0 mm | - | 649 W/m² | - |
| 1777299031 | 12.78° C | 79% | 1016.6 hPa | 0 mm | - | 654 W/m² | - |
| 1777298728 | 12.78° C | 79% | 1016.6 hPa | 0 mm | - | 633 W/m² | - |
| 1777298424 | 12.78° C | 78% | 1016.8 hPa | 0 mm | - | 613 W/m² | - |
| 1777298120 | 12.78° C | 79% | 1016.8 hPa | 0 mm | - | 534 W/m² | - |
| 1777297816 | 11.67° C | 81% | 1016.8 hPa | 0 mm | - | 398 W/m² | - |
| 1777297514 | 11.67° C | 82% | 1016.6 hPa | 0 mm | - | 307 W/m² | - |
| 1777297210 | 11.67° C | 81% | 1016.6 hPa | 0 mm | - | 262 W/m² | - |
| 1777296908 | 12.22° C | 80% | 1016.5 hPa | 0 mm | - | 310 W/m² | - |
| 1777296604 | 12.22° C | 80% | 1016.9 hPa | 0 mm | - | 342 W/m² | - |
| 1777296273 | 12.22° C | 79% | 1016.9 hPa | 0 mm | - | 402 W/m² | - |
| 1777295969 | 11.67° C | 81% | 1016.8 hPa | 0 mm | - | 354 W/m² | - |
| 1777295667 | 11.11° C | 81% | 1016.8 hPa | 0 mm | - | 300 W/m² | - |
| 1777295365 | 11.11° C | 82% | 1016.8 hPa | 0 mm | - | 317 W/m² | - |
| 1777295062 | 10.56° C | 83% | 1016.8 hPa | 0 mm | - | 301 W/m² | - |
| 1777294759 | 10.56° C | 83% | 1016.5 hPa | 0 mm | - | 268 W/m² | - |
| 1777294454 | 10.56° C | 86% | 1016.6 hPa | 0 mm | - | 259 W/m² | - |
| 1777294151 | 10° C | 86% | 1016.4 hPa | 0 mm | - | 261 W/m² | - |
| 1777293848 | 10° C | 86% | 1016.8 hPa | 0 mm | - | 288 W/m² | - |
* Rain latest hour (hover to see other rain measurements)
** Current wind speed in m/s (hover to see current wind gust speed)